Location: Abraham Lincoln Continuation High School
(33.9711°N, 117.3662°W)
Time: 09:45:09
(UTC+00:00)

X-37B - Pass Details

Date: 21 January 2021
Orbit: 383 x 391 km, 45.0° (Epoch: 27 February)

Event Time Altitude Azimuth Distance (km) Brightness Sun altitude
Rises 02:44:19 0° 278° (W) 2,269 5.8 -19.7°
Reaches altitude 10° 02:46:52 10° 299° (WNW) 1,417 4.1 -20.2°
Enters shadow 02:49:03 17° 343° (NNW) 1,067 2.8 -20.7°
